Location: B
(0.0000°N, 0.0000°E)
Time: 06:27:26
(UTC+01:00)

Daily predictions for brighter satellites

Satellite Brightness Start Highest point End
(mag) Time Altitude Azimuth Time Altitude Azimuth Time Altitude Azimuth
Ariane H10 3.9 19:21:38 10° WSW 19:24:51 42° S 19:34:35 10° E
Okean 1 3.3 19:30:50 10° N 19:34:51 63° E 19:38:52 10° SSE
ARIANE 5 DEB (SYLDA) 2.9 19:31:38 10° W 19:36:20 65° S 19:40:05 10° ESE
ARIANE 44LP R/B 2.6 19:34:37 10° WNW 19:37:42 41° N 19:39:38 10° ENE
ARIANE 5 DEB (SYLDA) 4.1 19:37:36 10° W 19:41:38 77° S 19:53:28 11° E
SL-16 R/B 2.2 19:36:05 10° N 19:41:39 61° ENE 19:47:13 10° SSE
Meteor 1-5 Rocket 4.4 19:39:36 10° S 19:45:29 67° E 19:51:23 10° NNE
Cosmos 2082 4.0 19:44:34 10° S 19:50:03 47° ESE 19:55:30 10° NNE
ARIANE 44P R/B 3.0 19:39:53 10° W 19:51:24 76° N 19:53:59 14° E
METEOR-M 4.2 19:46:30 10° SSE 19:51:43 54° ENE 19:56:54 10° N
CENTAUR R/B 3.5 19:43:46 10° NNW 19:52:07 73° WSW 20:00:08 10° SSE
Spelda 3.6 19:44:13 10° W 19:52:29 47° S 19:55:17 11° ESE
Cosmos 2322 Rocket 2.2 19:51:04 10° NNW 19:56:41 87° WSW 20:02:20 10° SSE
Cosmos 1340 2.5 19:54:52 10° N 19:58:36 70° E 20:02:22 10° S
Centaur Rocket 4.1 19:53:15 10° W 20:01:08 48° SSW 20:04:01 11° SE
IUS-7 SRM-1 4.4 20:00:06 10° W 20:03:52 23° NW 20:05:49 10° NNE
Ariane H10-3 2.2 20:01:40 10° W 20:04:12 64° S 20:09:47 16° E
FREGAT/IRIS 2.6 20:01:56 10° SSE 20:04:58 62° E 20:07:59 10° N
GPS 2-12 Rocket1 3.3 20:02:14 10° NW 20:06:31 48° NNE 20:09:02 22° E
DNEPR-1 R/B 3.7 20:06:23 10° NNW 20:10:52 68° ENE 20:16:11 10° SSE
ARIANE 5 R/B 4.3 20:07:43 10° W 20:11:57 68° N 20:26:15 21° ENE
ARIANE 5 R/B 4.3 20:07:43 10° W 20:11:58 68° N 20:26:14 21° ENE
ARIANE 5 R/B 4.3 20:07:43 10° W 20:11:58 68° N 20:26:15 21° ENE
ARIANE 5 R/B 4.3 20:07:42 10° W 20:11:58 68° N 20:26:14 21° ENE
Cosmos 2297 Rocket 2.1 20:06:49 10° S 20:12:27 70° ESE 20:18:03 10° NNE
Cosmos 1500 4.1 20:09:58 10° SSE 20:13:17 27° E 20:13:27 27° E
Cosmos 1610 Rocket 4.4 20:07:31 10° S 20:13:50 75° E 20:20:03 10° N
Spot 2 Rocket 4.2 20:11:15 10° SE 20:15:38 30° ENE 20:20:00 10° NNE
SJ-6B 2.8 20:11:53 10° SSE 20:16:00 84° E 20:20:02 10° N
Okean 1-7 Rocket 3.8 20:11:57 10° NNE 20:16:11 45° E 20:20:24 10° SSE
Cosmos 2322 4.2 20:11:12 10° N 20:16:18 35° ENE 20:21:24 10° SE
Meteor 1-19 Rocket 4.2 20:13:35 10° N 20:19:22 83° E 20:25:15 10° S
Cosmos 1461 2.9 20:15:29 10° NNW 20:19:42 85° WSW 20:24:06 10° SSE
H-2A ROCKET BODY 2.9 20:13:39 10° NW 20:21:48 27° N 20:23:09 23° NE
Centaur AC-125 4.2 20:18:10 10° WSW 20:22:18 67° NNW 20:35:59 17° ENE
Cosmos 1455 Rocket 2.9 20:22:55 10° S 20:27:20 69° E 20:31:42 10° N
Resurs 01 Rocket 1.6 20:28:06 10° SSE 20:32:25 54° ENE 20:36:42 10° N
Cosmos 2227 Rocket 3.2 20:27:14 10° SSW 20:32:39 48° WNW 20:38:02 10° N
GPS 2-17 Rocket1 3.4 20:30:18 10° W 20:34:57 57° NNW 20:36:15 41° NNE
Centaur AC-119 4.2 20:33:28 10° NNW 20:37:28 41° NE 20:40:26 32° E
Meteor 2-4 Rocket 3.5 20:32:42 10° N 20:38:03 86° E 20:43:25 10° S
Meteosat 1 Rocket2 2.6 20:34:53 10° WNW 20:38:33 84° NNE 20:39:01 68° ESE
SL-8 R/B 4.4 20:35:54 10° NW 20:40:36 53° SW 20:44:27 15° SSE
Meteor 1-23 Rocket 4.1 20:35:05 10° N 20:40:45 71° E 20:46:22 10° SSE
Centaur D-1AR AC-48 3.3 20:38:53 10° SW 20:43:29 63° SSE 20:49:25 32° E
Cosmos 1354 Rocket 3.9 20:38:20 10° S 20:43:32 65° ESE 20:44:44 49° NE
Cosmos 1295 Rocket 4.5 20:39:08 10° SSE 20:45:04 53° E 20:46:39 42° NE
Cosmos 2360 Rocket 2.1 20:40:40 10° NNW 20:46:19 89° WSW 20:52:00 10° SSE
Helios 1B rocket 4.4 20:47:21 10° NNW 20:50:54 28° WNW 20:54:29 10° SW
SL-24 R/B - RUBIN 2 4.3 20:45:07 10° SSW 20:50:55 89° WNW 20:53:49 34° NNE
Lacrosse 5 rocket 3.3 20:48:42 10° S 20:50:40 21° SSE 20:50:40 21° SSE
BLOCK DM-SL R/B 3.7 20:50:30 10° W 20:55:17 86° S 20:57:29 47° E
ALOS 3.9 21:01:35 10° SSW 21:05:46 34° WSW 21:09:59 10° NW
Cosmos 1975 4.4 21:02:41 10° SSW 21:06:20 34° W 21:07:16 30° WNW
Cosmos 2341 Rocket 4.4 21:03:32 10° SSW 21:09:45 63° W 21:16:01 10° N
ARIANE 5 R/B 3.0 21:04:09 10° W 21:11:06 48° WSW 21:11:06 48° WSW
ARIANE 5 DEB (SYLDA) 3.7 21:27:44 10° W 21:43:04 71° NW 21:43:04 71° NW
Centaur D-1AR AC-36 4.3 21:55:11 10° WNW 21:57:57 21° W 21:57:57 21° W
ARIANE 5 R/B 4.4 21:57:53 10° WSW 22:44:41 12° E 22:56:16 10° E
ARIANE 5 R/B 4.4 21:57:53 10° WSW 22:44:40 12° E 22:56:16 10° E
